Wind_Speed
30 31 30 30 31 31 32 33 35 34 34 34 34 34 35 34 34 34 35 36 36 37 36 36 36 37 37 38 39 39 40 41 42 43 45 46 47 48 49 50 50 50 51 51
30 30 31 31 30 31 32 32 33 33 33 33 33 33 33 33 32 32 33 34 35 36 35 33 33 33 34 37 38 39 40 40 41 42 42 43 45 46 46 47 48 48 49 51
30 30 31 31 30 31 32 32 32 32 32 32 32 32 32 33 33 32 32 33 34 35 35 35 34 34 34 36 37 38 39 40 41 41 42 43 43 45 46 46 46 46 47 48
30 31 31 30 31 31 32 31 31 31 31 31 31 32 33 33 32 32 32 32 32 33 34 34 34 34 35 36 37 38 39 40 40 41 42 43 44 44 44 44 44 44 45 47
30 31 32 31 31 32 32 31 31 31 31 32 32 32 32 32 32 31 31 30 30 30 32 33 33 34 35 36 36 37 39 40 41 42 42 43 43 44 45 45 45 45 45 46
31 32 32 31 32 32 33 32 32 32 32 32 32 32 31 31 31 30 30 29 29 28 29 29 31 32 33 34 35 35 36 38 39 41 42 42 41 42 42 43 44 44 44 45
29 30 31 31 31 32 32 33 33 33 33 32 32 32 31 30 29 29 28 28 28 27 27 27 28 29 30 31 32 34 34 36 37 38 39 39 39 40 41 41 41 42 43 42
29 30 31 31 32 32 32 32 32 33 32 32 32 31 30 29 28 28 28 27 27 27 27 27 27 28 29 29 30 32 32 33 34 35 36 37 38 39 39 40 40 41 41 41
29 30 30 31 31 31 31 31 31 31 31 30 30 30 29 28 27 27 27 27 27 27 27 27 28 28 28 29 30 30 30 31 31 32 33 35 35 35 36 37 38 39 39 39
28 28 28 29 29 30 30 30 30 30 30 30 29 29 28 28 27 27 26 26 27 27 27 27 28 28 28 27 28 29 29 30 30 30 31 32 32 33 33 35 36 36 37 37
26 26 27 28 28 28 29 30 30 29 29 29 29 29 29 28 27 26 26 26 26 26 26 26 26 27 27 27 27 27 28 28 29 29 30 30 31 31 32 33 34 35 35 36
26 26 26 27 28 28 28 29 29 29 29 29 29 29 28 28 27 27 26 26 26 25 25 25 26 25 26 26 26 26 27 27 27 28 29 30 30 31 32 32 33 34 34 34
26 27 27 28 28 29 29 30 30 30 30 29 28 28 28 28 28 27 26 25 25 25 25 25 26 25 25 24 25 25 25 25 26 26 27 27 28 29 30 31 32 33 33 33
26 27 27 28 28 28 29 29 30 30 30 29 29 28 28 28 27 26 26 25 24 24 24 24 24 24 25 25 24 24 24 24 25 25 25 26 27 27 28 29 30 32 32 32
26 27 27 27 27 28 29 29 29 29 29 28 28 27 27 27 26 26 25 25 25 25 25 24 23 23 23 24 24 24 25 24 25 26 26 26 25 26 26 26 27 28 29 29
26 27 27 27 28 28 28 28 28 28 28 28 28 27 27 26 26 25 25 25 25 25 25 24 24 24 24 24 24 24 24 24 24 24 24 24 24 24 24 24 24 25 26 27
25 26 27 28 28 28 28 28 28 28 27 27 27 27 27 26 26 25 25 25 24 24 23 24 24 24 24 24 23 23 23 23 23 23 23 23 23 23 22 22 23 24 25 26
25 25 25 26 26 26 26 26 27 27 27 27 27 27 26 26 25 25 24 24 24 23 23 23 23 23 24 23 23 22 22 21 21 21 21 21 21 21 22 22 23 23 24 25
23 24 24 25 26 26 26 26 26 27 27 26 26 26 26 25 25 24 24 23 23 23 23 22 22 22 22 22 22 22 21 21 20 20 20 20 21 21 21 20 20 21 22 23
24 24 25 26 26 26 26 26 26 26 25 25 25 25 24 24 24 23 23 23 23 23 22 22 21 21 21 21 21 21 21 21 20 20 20 19 19 19 20 21 21 21 22 22
24 25 25 25 26 26 26 26 25 24 24 24 24 23 23 22 22 22 22 22 22 22 21 21 21 21 20 20 20 20 21 21 20 20 20 20 20 20 20 21 21 21 22 22
24 24 24 25 25 25 25 25 24 23 23 23 23 22 22 22 21 21 21 21 20 20 21 21 21 20 20 20 20 20 20 21 21 21 21 21 21 21 21 21 20 21 21 22
23 23 24 25 25 25 25 24 24 23 23 23 22 22 22 21 20 20 20 20 19 19 19 19 20 20 20 20 20 21 21 22 22 23 23 23 22 22 22 22 22 21 22 22
23 24 24 25 25 25 24 24 24 24 23 23 22 22 21 20 20 19 19 19 19 19 19 19 19 20 20 20 20 21 21 21 22 23 23 24 24 23 23 23 23 23 23 23
24 25 25 25 25 25 25 24 24 24 23 22 22 21 20 20 20 20 19 19 19 19 20 19 19 20 20 21 21 21 22 22 22 23 23 24 25 25 25 25 25 25 25 25
24 25 25 26 26 25 25 25 24 24 23 22 21 21 20 20 20 20 20 20 20 20 20 20 19 19 19 20 20 21 22 22 23 23 24 24 25 26 26 26 26 26 26 26
25 25 26 26 25 25 24 24 23 23 23 22 21 21 21 21 20 20 20 19 19 20 20 20 19 19 19 19 19 20 20 21 22 23 24 24 25 26 26 27 27 27 27 27
Wind_Direction
280 280 280 282 283 283 285 287 288 290 291 291 290 290 288 286 284 281 280 276 273 270 268 267 266 263 258 255 254 254 254 254 253 252 253 254 253 252 251 251 252 252 251 250
280 280 280 282 284 285 286 289 290 290 291 291 291 291 289 287 286 284 283 279 274 271 267 265 265 262 260 257 255 255 255 254 254 253 254 254 253 252 252 252 252 253 252 251
280 280 280 281 285 287 289 290 291 291 292 292 291 292 292 289 287 286 284 281 277 272 268 266 265 262 262 260 257 256 255 255 255 254 254 254 254 254 254 253 254 254 254 253
281 280 280 284 286 287 289 291 291 291 292 293 293 294 294 292 289 287 286 283 281 276 271 267 265 263 264 262 259 257 256 256 256 256 257 256 256 256 256 256 256 256 255 253
282 282 282 285 286 288 290 291 290 292 293 292 293 294 294 291 289 288 285 282 279 277 274 269 266 265 265 263 261 259 258 258 258 258 258 258 257 257 257 257 257 256 256 255
284 284 285 288 288 290 291 290 291 292 292 292 292 294 293 290 287 287 284 281 278 276 276 272 269 268 266 263 262 262 261 261 260 259 259 259 259 257 257 258 257 257 257 256
284 285 287 289 290 291 292 294 293 293 294 293 293 294 294 290 288 287 284 280 277 276 274 272 272 270 269 268 266 265 265 264 263 261 261 260 259 257 257 257 256 257 256 255
285 286 288 289 289 291 293 293 294 294 294 294 293 293 295 293 290 288 285 282 278 275 272 271 271 271 270 270 270 268 267 267 265 264 262 261 259 258 257 256 257 257 255 255
286 287 288 288 288 290 291 293 294 295 295 294 293 292 293 293 291 289 287 284 279 275 272 270 269 271 271 271 270 269 268 267 266 265 263 262 261 259 258 258 258 258 256 255
287 287 288 288 288 290 291 293 294 295 295 293 291 291 291 291 290 289 287 285 281 278 274 270 269 270 270 271 270 268 267 267 266 266 264 263 262 261 260 259 258 257 256 255
286 288 288 289 290 291 292 293 294 295 296 294 292 291 290 290 290 290 288 286 283 280 276 272 269 268 269 270 269 268 268 267 267 265 263 262 262 261 260 259 259 257 256 255
287 288 289 290 290 291 293 294 294 295 296 295 293 292 291 290 289 289 288 286 285 282 279 276 272 271 270 271 271 269 268 267 267 267 264 262 261 260 261 260 259 257 256 255
285 287 289 290 291 292 293 293 294 294 295 294 293 291 291 290 289 288 287 284 284 283 281 279 275 273 271 270 271 271 271 268 266 265 264 262 261 261 261 260 258 256 255 254
286 288 290 291 292 292 293 294 293 293 293 293 291 291 291 291 291 288 286 283 283 283 282 280 277 274 272 270 270 271 271 269 267 266 265 263 262 262 261 259 258 256 254 253
286 289 291 292 293 293 294 294 293 292 292 292 291 291 291 292 292 290 287 283 282 282 281 280 278 277 276 276 274 272 270 269 268 266 265 264 264 264 263 261 259 257 254 251
288 289 292 293 294 295 295 296 295 294 293 292 291 291 292 293 292 290 288 284 282 282 280 278 277 276 276 276 276 275 272 270 267 265 263 263 264 263 262 259 257 254 252 250
290 291 292 293 295 296 296 296 296 295 293 293 292 292 292 292 291 290 288 286 283 283 280 278 277 277 276 276 276 274 272 270 268 267 265 264 263 262 261 259 258 256 251 248
291 292 294 295 296 296 296 297 297 296 295 293 291 292 291 291 290 289 289 287 285 283 282 279 277 276 276 274 273 272 271 269 269 268 266 264 262 262 264 263 260 257 251 250
293 294 295 296 298 298 298 297 297 297 296 294 292 291 291 290 290 289 288 286 284 282 283 281 278 276 274 272 271 270 269 269 269 268 266 265 264 263 262 261 261 259 256 253
295 296 297 298 299 299 299 299 300 298 296 294 293 292 291 291 292 291 290 287 284 282 282 280 279 277 274 271 269 268 267 266 266 266 265 266 265 263 262 262 262 261 260 257
295 296 298 300 301 301 300 300 300 299 297 296 295 293 292 292 293 293 292 289 286 283 281 280 278 277 275 274 272 269 266 264 263 263 263 264 264 264 264 264 263 262 261 260
296 298 298 300 301 301 300 299 298 298 297 296 296 294 292 292 293 292 291 289 286 284 282 280 277 275 274 273 272 272 269 266 264 262 262 261 262 263 263 263 263 263 262 262
298 299 299 300 301 300 299 298 297 297 296 295 294 294 292 292 292 291 290 288 286 285 285 283 278 274 274 273 273 272 270 267 265 263 262 261 261 262 262 262 262 262 262 262
300 300 300 301 301 301 300 299 297 297 296 294 293 293 292 291 289 289 289 287 286 286 287 286 280 275 274 273 274 273 271 270 268 265 263 262 261 261 261 261 261 260 261 261
302 302 302 301 301 301 300 299 297 296 295 293 292 291 291 289 288 288 288 287 286 286 287 286 282 279 277 274 273 273 273 272 271 269 267 264 262 260 260 260 259 259 260 260
306 305 304 303 301 301 300 299 297 295 294 293 292 290 290 289 288 287 287 287 287 288 288 287 284 281 279 277 275 274 273 273 271 270 269 267 265 262 261 260 260 260 260 260
308 307 306 304 303 302 300 298 296 294 293 292 291 289 289 289 288 287 286 287 288 289 289 288 285 283 283 283 281 278 275 274 274 272 270 268 266 264 263 262 261 260 260 260
Height
5576 5574 5572 5571 5569 5567 5564 5561 5558 5556 5553 5550 5546 5542 5539 5536 5534 5532 5530 5527 5525 5524 5522 5522 5521 5520 5520 5521 5523 5524 5526 5528 5530 5532 5534 5536 5538 5540 5542 5545 5548 5550 5553 5556
5567 5565 5563 5562 5560 5558 5555 5552 5549 5546 5544 5541 5537 5533 5530 5527 5525 5522 5520 5517 5515 5513 5512 5512 5511 5510 5511 5512 5513 5514 5515 5517 5518 5520 5522 5523 5525 5527 5529 5531 5533 5536 5539 5542
5558 5556 5554 5553 5552 5549 5547 5544 5541 5537 5536 5532 5528 5525 5521 5518 5516 5513 5510 5508 5506 5504 5503 5502 5501 5501 5501 5501 5502 5503 5504 5506 5507 5508 5510 5511 5513 5514 5516 5518 5520 5522 5525 5527
5548 5547 5545 5547 5543 5540 5537 5535 5532 5529 5526 5523 5520 5516 5513 5509 5506 5504 5501 5499 5496 5494 5493 5493 5492 5492 5491 5492 5492 5493 5493 5495 5496 5497 5498 5499 5500 5502 5504 5505 5508 5510 5512 5514
5539 5537 5536 5537 5534 5530 5528 5526 5523 5520 5517 5514 5511 5508 5505 5501 5498 5495 5492 5490 5488 5486 5484 5484 5483 5482 5482 5482 5482 5482 5483 5484 5485 5485 5486 5487 5488 5490 5491 5493 5495 5497 5499 5501
5530 5528 5527 5528 5525 5521 5519 5517 5515 5511 5508 5505 5502 5499 5497 5493 5489 5487 5484 5482 5479 5478 5476 5475 5474 5474 5473 5473 5473 5473 5473 5473 5473 5474 5474 5475 5476 5478 5479 5481 5482 5484 5486 5488
5522 5519 5518 5518 5515 5512 5511 5509 5505 5502 5499 5496 5493 5490 5488 5484 5481 5478 5476 5474 5471 5470 5468 5467 5466 5466 5465 5465 5464 5464 5464 5463 5463 5463 5463 5464 5465 5466 5467 5469 5470 5472 5474 5476
5513 5511 5512 5509 5506 5504 5502 5498 5495 5492 5489 5487 5484 5481 5478 5475 5473 5470 5468 5466 5464 5462 5461 5460 5459 5458 5458 5457 5456 5455 5455 5454 5453 5453 5453 5453 5454 5455 5456 5457 5458 5460 5462 5463
5506 5506 5502 5499 5497 5494 5492 5490 5487 5484 5481 5478 5475 5473 5470 5467 5465 5462 5460 5458 5456 5454 5453 5452 5451 5451 5450 5449 5448 5447 5446 5445 5445 5444 5443 5443 5444 5444 5445 5446 5447 5449 5450 5451
5497 5495 5493 5490 5488 5486 5483 5481 5478 5475 5473 5470 5467 5465 5462 5460 5457 5455 5452 5450 5448 5446 5445 5444 5443 5442 5441 5441 5440 5439 5438 5437 5436 5435 5435 5434 5434 5435 5435 5436 5437 5437 5439 5441
5488 5487 5484 5482 5480 5477 5475 5472 5470 5467 5464 5461 5459 5456 5454 5451 5449 5447 5444 5442 5440 5438 5437 5436 5435 5434 5433 5432 5431 5430 5430 5428 5427 5427 5426 5426 5426 5426 5426 5426 5426 5428 5429 5431
5481 5479 5476 5474 5472 5469 5467 5464 5462 5459 5456 5453 5450 5448 5445 5443 5441 5439 5436 5434 5433 5431 5429 5428 5427 5426 5425 5424 5423 5422 5421 5420 5419 5419 5418 5418 5418 5418 5417 5418 5418 5419 5420 5421
5472 5470 5468 5466 5463 5461 5458 5456 5453 5450 5448 5445 5442 5439 5437 5434 5432 5430 5428 5426 5424 5423 5421 5420 5419 5418 5417 5416 5415 5414 5413 5413 5412 5411 5410 5410 5410 5410 5410 5410 5409 5410 5411 5412
5464 5462 5460 5458 5455 5452 5450 5447 5444 5442 5439 5436 5434 5431 5429 5426 5424 5422 5420 5418 5416 5415 5414 5412 5411 5410 5409 5408 5407 5406 5406 5405 5404 5404 5403 5403 5402 5402 5402 5402 5402 5402 5402 5403
5456 5454 5452 5449 5447 5444 5441 5438 5436 5433 5431 5428 5426 5423 5421 5418 5416 5413 5411 5410 5408 5407 5405 5404 5403 5402 5401 5400 5399 5399 5398 5397 5397 5396 5396 5395 5395 5394 5394 5394 5393 5394 5394 5395
5448 5446 5443 5441 5438 5436 5433 5430 5427 5425 5422 5420 5418 5415 5413 5410 5408 5405 5403 5402 5400 5399 5397 5396 5395 5394 5393 5393 5392 5391 5390 5390 5389 5389 5388 5388 5387 5387 5387 5386 5386 5386 5387 5388
5440 5438 5435 5433 5430 5427 5425 5422 5419 5416 5414 5412 5409 5407 5405 5402 5400 5398 5395 5393 5392 5390 5389 5388 5387 5386 5385 5385 5384 5384 5383 5383 5382 5382 5381 5381 5380 5380 5380 5380 5379 5380 5380 5380
5432 5430 5427 5425 5422 5419 5417 5414 5411 5408 5406 5403 5401 5399 5397 5394 5392 5390 5387 5385 5384 5382 5381 5380 5379 5378 5377 5377 5377 5376 5376 5375 5375 5375 5374 5374 5374 5374 5373 5373 5373 5373 5373 5374
5424 5422 5419 5417 5414 5411 5408 5406 5403 5400 5397 5395 5393 5390 5388 5386 5384 5381 5379 5377 5376 5374 5373 5372 5371 5370 5369 5369 5369 5369 5368 5368 5368 5368 5368 5368 5367 5367 5367 5367 5366 5366 5366 5367
5417 5414 5412 5409 5406 5403 5400 5397 5395 5392 5389 5387 5384 5382 5380 5378 5376 5374 5372 5370 5368 5367 5365 5364 5363 5363 5362 5362 5361 5361 5361 5361 5361 5361 5361 5361 5361 5361 5360 5360 5360 5360 5360 5360
5409 5406 5404 5401 5398 5395 5392 5389 5386 5384 5381 5379 5377 5374 5372 5370 5368 5366 5364 5363 5361 5359 5358 5357 5356 5356 5355 5355 5354 5354 5354 5354 5354 5354 5354 5354 5354 5354 5354 5354 5354 5353 5353 5353
5401 5398 5396 5393 5390 5387 5384 5382 5379 5376 5374 5372 5369 5367 5365 5363 5361 5359 5357 5356 5354 5353 5351 5350 5349 5349 5348 5348 5347 5347 5347 5346 5346 5347 5347 5347 5347 5347 5347 5347 5347 5347 5347 5347
5393 5391 5388 5385 5383 5380 5377 5374 5371 5369 5367 5364 5362 5360 5358 5356 5354 5353 5351 5349 5348 5346 5345 5344 5343 5342 5341 5341 5340 5340 5340 5339 5339 5339 5339 5339 5339 5339 5339 5340 5340 5340 5340 5340
5386 5383 5380 5378 5375 5372 5370 5367 5364 5362 5360 5357 5355 5353 5351 5349 5348 5346 5344 5343 5341 5340 5339 5337 5336 5335 5335 5334 5333 5333 5332 5332 5331 5331 5331 5331 5331 5331 5332 5332 5332 5332 5332 5332
5378 5376 5373 5370 5367 5365 5362 5359 5357 5355 5352 5350 5348 5346 5344 5343 5341 5339 5338 5336 5335 5334 5332 5331 5329 5328 5327 5327 5326 5325 5325 5324 5323 5323 5323 5323 5323 5323 5323 5323 5324 5324 5324 5324
5371 5368 5365 5362 5360 5357 5354 5352 5349 5347 5345 5343 5341 5339 5337 5336 5334 5333 5331 5330 5328 5327 5325 5324 5323 5321 5320 5319 5318 5318 5317 5316 5315 5315 5314 5314 5314 5314 5314 5314 5315 5315 5315 5316
5364 5361 5358 5355 5352 5349 5346 5344 5342 5340 5338 5336 5334 5332 5330 5329 5327 5326 5324 5323 5321 5320 5318 5317 5316 5314 5313 5312 5311 5310 5309 5308 5307 5306 5305 5305 5305 5304 5305 5305 5305 5305 5306 5306